• In France
  • List of Countries
  • For 7 days
  • Water Temperature
  • Satellite Maps
  • Weather Map
  • Weather Widgets
  • user-avatar
    Login

    Hourly Weather Abidzhan

    Today, 14 December, Thursday

    Time Temperature Precipitation Wind Pressure Humidity
    00:00 +27°C° 0 mm 2 mps 755 mmHg 89%
    01:00 +27°C° 0.1 mm 1 mps 755 mmHg 90%
    02:00 +27°C° 0.1 mm 1 mps 755 mmHg 90%
    03:00 +27°C° 0.1 mm 1 mps 754 mmHg 90%
    04:00 +27°C° 0 mm 1 mps 754 mmHg 91%
    05:00 +27°C° 0 mm 1 mps 754 mmHg 91%
    06:00 +27°C° 0 mm 1 mps 754 mmHg 92%
    07:00 +28°C° 0 mm 1 mps 755 mmHg 84%
    08:00 +30°C° 0 mm 1 mps 755 mmHg 76%
    09:00 +31°C° 0 mm 1 mps 755 mmHg 68%
    10:00 +32°C° 0 mm 2 mps 755 mmHg 63%
    11:00 +34°C° 0 mm 2 mps 755 mmHg 59%
    12:00 +35°C° 0 mm 2 mps 755 mmHg 55%
    13:00 +35°C° 0.1 mm 2 mps 754 mmHg 55%
    14:00 +35°C° 0.1 mm 2 mps 754 mmHg 55%
    15:00 +35°C° 0.1 mm 3 mps 754 mmHg 55%
    16:00 +34°C° 0 mm 3 mps 754 mmHg 61%
    17:00 +31°C° 0 mm 3 mps 754 mmHg 67%
    18:00 +30°C° 0 mm 3 mps 754 mmHg 73%
    19:00 +29°C° 0 mm 3 mps 754 mmHg 77%
    20:00 +29°C° 0 mm 3 mps 755 mmHg 81%
    21:00 +28°C° 0 mm 3 mps 755 mmHg 84%
    22:00 +28°C° 0 mm 3 mps 755 mmHg 86%
    23:00 +27°C° 0 mm 3 mps 755 mmHg 88%

    Tomorrow, 15 December, Friday

    Time Temperature Precipitation Wind Pressure Humidity
    00:00 +27°C° 0 mm 3 mps 755 mmHg 90%
    01:00 +27°C° 0 mm 3 mps 755 mmHg 91%
    02:00 +27°C° 0 mm 3 mps 755 mmHg 92%
    03:00 +27°C° 0 mm 3 mps 755 mmHg 93%
    04:00 +27°C° 0 mm 3 mps 755 mmHg 93%
    05:00 +26°C° 0 mm 3 mps 755 mmHg 94%
    06:00 +26°C° 0 mm 3 mps 755 mmHg 94%
    07:00 +28°C° 0 mm 3 mps 755 mmHg 88%
    08:00 +29°C° 0 mm 3 mps 755 mmHg 81%
    09:00 +30°C° 0 mm 3 mps 756 mmHg 74%
    10:00 +31°C° 0 mm 3 mps 755 mmHg 69%
    11:00 +33°C° 0 mm 3 mps 755 mmHg 64%
    12:00 +34°C° 0 mm 3 mps 755 mmHg 59%
    13:00 +34°C° 0 mm 3 mps 754 mmHg 60%
    14:00 +33°C° 0 mm 3 mps 754 mmHg 62%
    15:00 +33°C° 0 mm 3 mps 753 mmHg 63%
    16:00 +31°C° 0 mm 3 mps 753 mmHg 68%
    17:00 +30°C° 0 mm 3 mps 753 mmHg 72%
    18:00 +29°C° 0 mm 3 mps 754 mmHg 77%
    19:00 +29°C° 0 mm 3 mps 754 mmHg 80%
    20:00 +28°C° 0 mm 3 mps 755 mmHg 83%
    21:00 +27°C° 0 mm 2 mps 755 mmHg 85%
    22:00 +27°C° 0 mm 3 mps 755 mmHg 87%
    23:00 +27°C° 0 mm 3 mps 755 mmHg 88%

    Day after tomorrow, 16 December, Saturday

    Time Temperature Precipitation Wind Pressure Humidity
    00:00 +27°C° 0 mm 3 mps 755 mmHg 89%
    01:00 +27°C° 0 mm 3 mps 755 mmHg 90%
    02:00 +26°C° 0 mm 3 mps 754 mmHg 91%
    03:00 +26°C° 0 mm 3 mps 754 mmHg 92%
    04:00 +26°C° 0 mm 3 mps 754 mmHg 92%
    05:00 +26°C° 0 mm 3 mps 754 mmHg 92%
    06:00 +26°C° 0 mm 3 mps 754 mmHg 93%
    07:00 +27°C° 0 mm 3 mps 755 mmHg 85%
    08:00 +29°C° 0 mm 3 mps 755 mmHg 77%
    09:00 +31°C° 0 mm 3 mps 756 mmHg 70%
    10:00 +33°C° 0 mm 3 mps 756 mmHg 64%
    11:00 +34°C° 0 mm 3 mps 755 mmHg 57%
    12:00 +36°C° 0 mm 3 mps 755 mmHg 51%
    13:00 +35°C° 0 mm 3 mps 754 mmHg 53%
    14:00 +35°C° 0 mm 3 mps 754 mmHg 55%
    15:00 +34°C° 0 mm 3 mps 753 mmHg 57%
    16:00 +33°C° 0 mm 3 mps 753 mmHg 62%
    17:00 +31°C° 0 mm 3 mps 753 mmHg 68%
    18:00 +30°C° 0 mm 3 mps 754 mmHg 73%
    19:00 +29°C° 0 mm 3 mps 754 mmHg 76%
    20:00 +28°C° 0 mm 3 mps 755 mmHg 80%
    21:00 +28°C° 0 mm 3 mps 756 mmHg 84%
    22:00 +27°C° 0 mm 3 mps 755 mmHg 85%
    23:00 +27°C° 0 mm 3 mps 755 mmHg 86%

    17 December, Sunday

    Time Temperature Precipitation Wind Pressure Humidity
    00:00 +27°C° 0 mm 3 mps 755 mmHg 87%
    01:00 +27°C° 0 mm 3 mps 755 mmHg 89%
    02:00 +27°C° 0 mm 3 mps 754 mmHg 90%
    03:00 +26°C° 0 mm 3 mps 753 mmHg 91%
    04:00 +27°C° 0 mm 3 mps 753 mmHg 90%
    05:00 +27°C° 0 mm 3 mps 754 mmHg 90%
    06:00 +27°C° 0 mm 3 mps 754 mmHg 89%
    07:00 +27°C° 0 mm 3 mps 754 mmHg 87%
    08:00 +28°C° 0 mm 3 mps 755 mmHg 85%
    09:00 +28°C° 0 mm 3 mps 756 mmHg 82%
    10:00 +30°C° 0 mm 3 mps 755 mmHg 76%
    11:00 +31°C° 0 mm 3 mps 755 mmHg 69%
    12:00 +34°C° 0 mm 3 mps 754 mmHg 62%
    13:00 +34°C° 0 mm 3 mps 754 mmHg 61%
    14:00 +34°C° 0 mm 3 mps 753 mmHg 60%
    15:00 +34°C° 0 mm 3 mps 752 mmHg 59%
    16:00 +33°C° 0.1 mm 3 mps 753 mmHg 65%
    17:00 +31°C° 0.1 mm 3 mps 753 mmHg 71%
    18:00 +29°C° 0.1 mm 3 mps 753 mmHg 77%
    19:00 +29°C° 0 mm 3 mps 754 mmHg 80%
    20:00 +28°C° 0 mm 3 mps 754 mmHg 83%
    21:00 +28°C° 0 mm 3 mps 755 mmHg 86%
    22:00 +27°C° 0 mm 3 mps 755 mmHg 87%
    23:00 +27°C° 0 mm 3 mps 755 mmHg 88%

    18 December, Monday

    Time Temperature Precipitation Wind Pressure Humidity
    00:00 +27°C° 0 mm 3 mps 755 mmHg 90%
    01:00 +27°C° 0 mm 3 mps 754 mmHg 90%
    02:00 +27°C° 0 mm 4 mps 754 mmHg 91%
    03:00 +27°C° 0 mm 4 mps 753 mmHg 91%
    04:00 +27°C° 0 mm 4 mps 754 mmHg 92%
    05:00 +27°C° 0 mm 4 mps 754 mmHg 92%
    06:00 +27°C° 0 mm 4 mps 754 mmHg 92%
    07:00 +27°C° 0.1 mm 4 mps 755 mmHg 88%
    08:00 +28°C° 0.1 mm 4 mps 755 mmHg 84%
    09:00 +29°C° 0.1 mm 4 mps 756 mmHg 80%
    10:00 +29°C° 0.1 mm 4 mps 755 mmHg 79%
    11:00 +30°C° 0.1 mm 4 mps 755 mmHg 77%
    12:00 +30°C° 0.1 mm 3 mps 755 mmHg 75%
    13:00 +30°C° 0.1 mm 3 mps 754 mmHg 73%
    14:00 +32°C° 0.1 mm 4 mps 753 mmHg 72%
    15:00 +32°C° 0.1 mm 4 mps 753 mmHg 71%
    16:00 +30°C° 0.1 mm 3 mps 753 mmHg 73%
    17:00 +29°C° 0.1 mm 3 mps 753 mmHg 76%
    18:00 +29°C° 0.1 mm 3 mps 753 mmHg 79%
    19:00 +28°C° 0 mm 3 mps 754 mmHg 82%
    20:00 +28°C° 0 mm 2 mps 754 mmHg 85%
    21:00 +27°C° 0 mm 2 mps 755 mmHg 88%
    22:00 +27°C° 0.5 mm 2 mps 755 mmHg 89%
    23:00 +27°C° 0.5 mm 2 mps 755 mmHg 90%

    19 December, Tuesday

    Time Temperature Precipitation Wind Pressure Humidity
    00:00 +26°C° 0.5 mm 2 mps 755 mmHg 92%
    01:00 +26°C° 0.6 mm 2 mps 754 mmHg 92%
    02:00 +26°C° 0.6 mm 2 mps 754 mmHg 92%
    03:00 +26°C° 0.6 mm 2 mps 753 mmHg 92%
    04:00 +26°C° 0 mm 2 mps 754 mmHg 92%
    05:00 +26°C° 0 mm 2 mps 754 mmHg 92%
    06:00 +26°C° 0 mm 3 mps 754 mmHg 92%
    07:00 +27°C° 0 mm 3 mps 755 mmHg 86%
    08:00 +28°C° 0 mm 3 mps 755 mmHg 80%
    09:00 +30°C° 0 mm 3 mps 756 mmHg 74%
    10:00 +31°C° 0.2 mm 3 mps 755 mmHg 70%
    11:00 +31°C° 0.2 mm 3 mps 755 mmHg 67%
    12:00 +33°C° 0.2 mm 4 mps 755 mmHg 63%
    13:00 +33°C° 0.5 mm 4 mps 754 mmHg 64%
    14:00 +33°C° 0.5 mm 4 mps 753 mmHg 65%
    15:00 +33°C° 0.5 mm 4 mps 753 mmHg 66%
    16:00 +32°C° 0.3 mm 4 mps 753 mmHg 71%
    17:00 +30°C° 0.3 mm 3 mps 753 mmHg 76%
    18:00 +28°C° 0.3 mm 3 mps 754 mmHg 81%
    19:00 +28°C° 0 mm 3 mps 754 mmHg 83%
    20:00 +27°C° 0 mm 2 mps 755 mmHg 86%
    21:00 +27°C° 0 mm 2 mps 755 mmHg 89%
    22:00 +27°C° 0.2 mm 2 mps 755 mmHg 90%
    23:00 +26°C° 0.2 mm 2 mps 755 mmHg 91%
    Show more